| time (UTC) | temp F | wind direction | speed MPH | gust MPH | rain 1hr in | rain 24hr in | rain mn in | humidity % | barometer mb |
| 20260505041504 | 71 | 165 | 5.0 | 10.0 | 0.00 | 0.00 | 0.00 | 85 | 1010.2 |
| 20260505041004 | 72 | 165 | 5.0 | 10.0 | 0.00 | 0.00 | 0.00 | 85 | 1010.2 |
| 20260505040504 | 72 | 158 | 6.0 | 10.0 | 0.00 | 0.00 | 0.00 | 84 | 1010.2 |
| 20260505040025 | 72 | 155 | 6.0 | 12.0 | 0.00 | 0.00 | 0.00 | 84 | 1010.1 |
| 20260505035525 | 72 | 158 | 7.0 | 13.0 | 0.00 | 0.00 | 0.00 | 84 | 1010.0 |
| 20260505035004 | 72 | 160 | 6.0 | 13.0 | 0.00 | 0.00 | 0.00 | 84 | 1010.0 |
| 20260505034504 | 72 | 158 | 5.0 | 11.0 | 0.00 | 0.00 | 0.00 | 84 | 1010.0 |
| 20260505034025 | 72 | 157 | 5.0 | 10.0 | 0.00 | 0.00 | 0.00 | 84 | 1010.1 |
| 20260505033504 | 72 | 156 | 6.0 | 10.0 | 0.00 | 0.00 | 0.00 | 83 | 1010.1 |
| 20260505033004 | 73 | 157 | 6.0 | 11.0 | 0.00 | 0.00 | 0.00 | 83 | 1010.1 |
| 20260505032525 | 73 | 160 | 6.0 | 11.0 | 0.00 | 0.00 | 0.00 | 83 | 1010.0 |
| 20260505032003 | 73 | 160 | 6.0 | 11.0 | 0.00 | 0.00 | 0.00 | 83 | 1010.0 |
| 20260505031504 | 73 | 161 | 6.0 | 11.0 | 0.00 | 0.00 | 0.00 | 83 | 1010.0 |
| 20260505031004 | 73 | 159 | 5.0 | 10.0 | 0.00 | 0.00 | 0.00 | 82 | 1010.2 |
| 20260505030503 | 73 | 153 | 5.0 | 10.0 | 0.00 | 0.00 | 0.00 | 82 | 1010.2 |
| 20260505030004 | 73 | 153 | 5.0 | 9.0 | 0.00 | 0.00 | 0.00 | 82 | 1010.2 |
| 20260505025503 | 74 | 157 | 5.0 | 9.0 | 0.00 | 0.00 | 0.00 | 82 | 1010.2 |
| 20260505025004 | 74 | 158 | 5.0 | 9.0 | 0.00 | 0.00 | 0.00 | 82 | 1010.0 |
| 20260505024503 | 74 | 159 | 5.0 | 10.0 | 0.00 | 0.00 | 0.00 | 81 | 1010.0 |
| 20260505024003 | 74 | 157 | 5.0 | 10.0 | 0.00 | 0.00 | 0.00 | 81 | 1009.9 |
| 20260505023524 | 74 | 157 | 5.0 | 9.0 | 0.00 | 0.00 | 0.00 | 81 | 1009.8 |
| 20260505023003 | 74 | 155 | 4.0 | 10.0 | 0.00 | 0.00 | 0.00 | 80 | 1009.8 |
| 20260505022504 | 74 | 150 | 3.0 | 10.0 | 0.00 | 0.00 | 0.00 | 80 | 1009.8 |
| 20260505022004 | 74 | 150 | 3.0 | 5.0 | 0.00 | 0.00 | 0.00 | 80 | 1009.7 |
| 20260505021504 | 75 | 154 | 3.0 | 7.0 | 0.00 | 0.00 | 0.00 | 79 | 1009.6 |
| 20260505021004 | 75 | 157 | 4.0 | 7.0 | 0.00 | 0.00 | 0.00 | 78 | 1009.4 |
| 20260505020504 | 75 | 157 | 4.0 | 8.0 | 0.00 | 0.00 | 0.00 | 78 | 1009.4 |
| 20260505020004 | 75 | 160 | 3.0 | 8.0 | 0.00 | 0.00 | 0.00 | 78 | 1009.3 |
| 20260505015503 | 75 | 162 | 3.0 | 7.0 | 0.00 | 0.00 | 0.00 | 78 | 1009.2 |
| 20260505015025 | 76 | 159 | 4.0 | 7.0 | 0.00 | 0.00 | 0.00 | 77 | 1009.3 |
| 20260505014504 | 76 | 159 | 4.0 | 7.0 | 0.00 | 0.00 | 0.00 | 77 | 1009.4 |
| 20260505014004 | 76 | 162 | 3.0 | 6.0 | 0.00 | 0.00 | 0.00 | 77 | 1009.3 |
| 20260505013524 | 76 | 163 | 3.0 | 8.0 | 0.00 | 0.00 | 0.00 | 77 | 1009.4 |
| 20260505013003 | 76 | 163 | 3.0 | 8.0 | 0.00 | 0.00 | 0.00 | 76 | 1009.3 |
| 20260505012505 | 76 | 165 | 3.0 | 8.0 | 0.00 | 0.00 | 0.00 | 76 | 1009.2 |
| 20260505012004 | 76 | 168 | 3.0 | 8.0 | 0.00 | 0.00 | 0.00 | 76 | 1009.2 |
| 20260505011505 | 77 | 169 | 4.0 | 8.0 | 0.00 | 0.00 | 0.00 | 75 | 1009.1 |
| 20260505011004 | 77 | 165 | 4.0 | 9.0 | 0.00 | 0.00 | 0.00 | 74 | 1009.1 |
| 20260505010505 | 77 | 163 | 5.0 | 9.0 | 0.00 | 0.00 | 0.00 | 74 | 1009.1 |
| 20260505010026 | 77 | 159 | 5.0 | 10.0 | 0.00 | 0.00 | 0.00 | 74 | 1009.2 |
| 20260505005504 | 77 | 161 | 6.0 | 12.0 | 0.00 | 0.00 | 0.00 | 73 | 1009.0 |
| 20260505005005 | 78 | 168 | 6.0 | 12.0 | 0.00 | 0.00 | 0.00 | 73 | 1009.0 |
| 20260505004504 | 78 | 172 | 5.0 | 10.0 | 0.00 | 0.00 | 0.00 | 73 | 1009.1 |
| 20260505004005 | 78 | 171 | 6.0 | 10.0 | 0.00 | 0.00 | 0.00 | 73 | 1009.0 |
| 20260505003505 | 78 | 171 | 6.0 | 14.0 | 0.00 | 0.00 | 0.00 | 72 | 1009.0 |
| 20260505003005 | 78 | 168 | 7.0 | 14.0 | 0.00 | 0.00 | 0.00 | 72 | 1009.2 |
| 20260505002504 | 78 | 167 | 7.0 | 13.0 | 0.00 | 0.00 | 0.00 | 71 | 1009.0 |
| 20260505002004 | 79 | 170 | 7.0 | 15.0 | 0.00 | 0.00 | 0.00 | 71 | 1009.1 |
| 20260505001504 | 79 | 170 | 7.0 | 18.0 | 0.00 | 0.00 | 0.00 | 71 | 1009.1 |
| 20260505001026 | 79 | 175 | 8.0 | 18.0 | 0.00 | 0.00 | 0.00 | 71 | 1009.2 |
| 20260505000504 | 79 | 174 | 8.0 | 17.0 | 0.00 | 0.00 | 0.00 | 70 | 1009.3 |
| 20260505000005 | 79 | 165 | 7.0 | 17.0 | 0.00 | 0.00 | 0.00 | 70 | 1009.3 |
| 20260504235505 | 80 | 162 | 7.0 | 13.0 | 0.00 | 0.00 | 0.00 | 69 | 1009.4 |
| 20260504235005 | 80 | 176 | 8.0 | 14.0 | 0.00 | 0.00 | 0.00 | 69 | 1009.4 |
| 20260504234506 | 80 | 183 | 8.0 | 14.0 | 0.00 | 0.00 | 0.00 | 69 | 1009.6 |
| 20260504234004 | 80 | 179 | 7.0 | 11.0 | 0.00 | 0.00 | 0.00 | 69 | 1009.6 |
| 20260504233504 | 80 | 177 | 7.0 | 12.0 | 0.00 | 0.00 | 0.00 | 68 | 1009.6 |
| 20260504233004 | 80 | 181 | 8.0 | 15.0 | 0.00 | 0.00 | 0.00 | 68 | 1009.7 |
| 20260504232504 | 80 | 176 | 7.0 | 15.0 | 0.00 | 0.00 | 0.00 | 67 | 1009.8 |
| 20260504232005 | 81 | 165 | 6.0 | 13.0 | 0.00 | 0.00 | 0.00 | 67 | 1009.8 |
| 20260504231504 | 80 | 160 | 6.0 | 12.0 | 0.00 | 0.00 | 0.00 | 67 | 1009.9 |
| 20260504231004 | 80 | 166 | 5.0 | 10.0 | 0.00 | 0.00 | 0.00 | 67 | 1009.9 |
| 20260504230505 | 80 | 166 | 5.0 | 10.0 | 0.00 | 0.00 | 0.00 | 67 | 1010.1 |
| 20260504230005 | 80 | 157 | 6.0 | 11.0 | 0.00 | 0.00 | 0.00 | 66 | 1010.0 |
| 20260504225505 | 81 | 155 | 6.0 | 11.0 | 0.00 | 0.00 | 0.00 | 66 | 1010.1 |
| 20260504225004 | 80 | 160 | 7.0 | 11.0 | 0.00 | 0.00 | 0.00 | 66 | 1010.1 |
| 20260504224504 | 80 | 172 | 6.0 | 13.0 | 0.00 | 0.00 | 0.00 | 65 | 1010.3 |
| 20260504224004 | 81 | 172 | 6.0 | 13.0 | 0.00 | 0.00 | 0.00 | 65 | 1010.2 |
| 20260504223504 | 81 | 176 | 6.0 | 12.0 | 0.00 | 0.00 | 0.00 | 64 | 1010.1 |
| 20260504223004 | 81 | 189 | 7.0 | 12.0 | 0.00 | 0.00 | 0.00 | 64 | 1010.2 |
| 20260504222504 | 81 | 189 | 6.0 | 13.0 | 0.00 | 0.00 | 0.00 | 65 | 1010.2 |
| 20260504222025 | 81 | 183 | 6.0 | 13.0 | 0.00 | 0.00 | 0.00 | 64 | 1010.2 |
| 20260504221504 | 81 | 178 | 6.0 | 12.0 | 0.00 | 0.00 | 0.00 | 63 | 1010.2 |
| 20260504221004 | 82 | 177 | 7.0 | 13.0 | 0.00 | 0.00 | 0.00 | 64 | 1010.2 |
| 20260504220525 | 81 | 182 | 7.0 | 13.0 | 0.00 | 0.00 | 0.00 | 64 | 1010.3 |
| 20260504220004 | 81 | 183 | 7.0 | 12.0 | 0.00 | 0.00 | 0.00 | 64 | 1010.2 |
| 20260504215504 | 81 | 192 | 8.0 | 13.0 | 0.00 | 0.00 | 0.00 | 63 | 1010.2 |
| 20260504215025 | 81 | 191 | 7.0 | 15.0 | 0.00 | 0.00 | 0.00 | 64 | 1010.3 |
| 20260504214525 | 81 | 182 | 8.0 | 15.0 | 0.00 | 0.00 | 0.00 | 64 | 1010.3 |
| 20260504214005 | 81 | 183 | 8.0 | 15.0 | 0.00 | 0.00 | 0.00 | 64 | 1010.4 |
| 20260504213525 | 81 | 178 | 7.0 | 12.0 | 0.00 | 0.00 | 0.00 | 64 | 1010.6 |
| 20260504213004 | 81 | 180 | 8.0 | 16.0 | 0.00 | 0.00 | 0.00 | 63 | 1010.6 |
| 20260504212504 | 81 | 182 | 8.0 | 16.0 | 0.00 | 0.00 | 0.00 | 63 | 1010.7 |
| 20260504212005 | 80 | 184 | 8.0 | 14.0 | 0.00 | 0.00 | 0.00 | 63 | 1010.9 |
| 20260504211504 | 81 | 195 | 8.0 | 15.0 | 0.00 | 0.00 | 0.00 | 63 | 1010.9 |
| 20260504211004 | 81 | 196 | 8.0 | 15.0 | 0.00 | 0.00 | 0.00 | 62 | 1011.1 |
| 20260504210504 | 81 | 186 | 8.0 | 14.0 | 0.00 | 0.00 | 0.00 | 62 | 1011.1 |
| 20260504210004 | 81 | 194 | 7.0 | 14.0 | 0.00 | 0.00 | 0.00 | 62 | 1011.1 |
| 20260504205504 | 81 | 212 | 7.0 | 13.0 | 0.00 | 0.00 | 0.00 | 62 | 1011.1 |
| 20260504205004 | 81 | 206 | 7.0 | 13.0 | 0.00 | 0.00 | 0.00 | 63 | 1011.3 |
| 20260504204504 | 81 | 193 | 9.0 | 16.0 | 0.00 | 0.00 | 0.00 | 62 | 1011.4 |
| 20260504204025 | 81 | 193 | 9.0 | 16.0 | 0.00 | 0.00 | 0.00 | 61 | 1011.4 |
| 20260504203505 | 81 | 193 | 9.0 | 16.0 | 0.00 | 0.00 | 0.00 | 63 | 1011.5 |
| 20260504203026 | 81 | 187 | 8.0 | 16.0 | 0.00 | 0.00 | 0.00 | 62 | 1011.5 |
| 20260504202526 | 81 | 190 | 7.0 | 16.0 | 0.00 | 0.00 | 0.00 | 63 | 1011.6 |
| 20260504202004 | 80 | 195 | 7.0 | 14.0 | 0.00 | 0.00 | 0.00 | 62 | 1011.6 |
| 20260504201504 | 80 | 195 | 9.0 | 14.0 | 0.00 | 0.00 | 0.00 | 63 | 1011.8 |
| 20260504201004 | 80 | 194 | 8.0 | 13.0 | 0.00 | 0.00 | 0.00 | 63 | 1011.9 |
| 20260504200525 | 80 | 193 | 9.0 | 14.0 | 0.00 | 0.00 | 0.00 | 62 | 1012.1 |
| 20260504200004 | 80 | 191 | 8.0 | 14.0 | 0.00 | 0.00 | 0.00 | 62 | 1012.1 |
| 20260504195525 | 80 | 193 | 7.0 | 14.0 | 0.00 | 0.00 | 0.00 | 64 | 1012.1 |
| 20260504195004 | 80 | 204 | 8.0 | 14.0 | 0.00 | 0.00 | 0.00 | 63 | 1012.1 |
| 20260504194525 | 80 | 206 | 8.0 | 14.0 | 0.00 | 0.00 | 0.00 | 63 | 1012.2 |
| 20260504194004 | 80 | 191 | 9.0 | 16.0 | 0.00 | 0.00 | 0.00 | 63 | 1012.3 |
| 20260504193504 | 80 | 190 | 8.0 | 16.0 | 0.00 | 0.00 | 0.00 | 63 | 1012.6 |
| 20260504193004 | 81 | 201 | 7.0 | 15.0 | 0.00 | 0.00 | 0.00 | 63 | 1012.7 |
| 20260504192504 | 81 | 195 | 7.0 | 15.0 | 0.00 | 0.00 | 0.00 | 62 | 1012.5 |
| 20260504192025 | 81 | 198 | 8.0 | 15.0 | 0.00 | 0.00 | 0.00 | 62 | 1012.6 |
| 20260504191504 | 81 | 211 | 9.0 | 18.0 | 0.00 | 0.00 | 0.00 | 62 | 1012.6 |
| 20260504191005 | 81 | 202 | 8.0 | 18.0 | 0.00 | 0.00 | 0.00 | 62 | 1012.7 |
| 20260504190504 | 81 | 206 | 8.0 | 14.0 | 0.00 | 0.00 | 0.00 | 63 | 1012.7 |
| 20260504190005 | 81 | 210 | 8.0 | 14.0 | 0.00 | 0.00 | 0.00 | 62 | 1012.7 |
| 20260504185525 | 80 | 200 | 8.0 | 14.0 | 0.00 | 0.00 | 0.00 | 63 | 1012.7 |
| 20260504185004 | 80 | 205 | 9.0 | 15.0 | 0.00 | 0.00 | 0.00 | 65 | 1012.9 |
| 20260504184504 | 80 | 195 | 9.0 | 15.0 | 0.00 | 0.00 | 0.00 | 63 | 1013.1 |
| 20260504184004 | 80 | 188 | 8.0 | 15.0 | 0.00 | 0.00 | 0.00 | 63 | 1013.2 |
| 20260504183525 | 80 | 190 | 9.0 | 17.0 | 0.00 | 0.00 | 0.00 | 65 | 1013.1 |
| 20260504183004 | 80 | 178 | 8.0 | 17.0 | 0.00 | 0.00 | 0.00 | 62 | 1013.1 |
| 20260504182504 | 80 | 178 | 7.0 | 12.0 | 0.00 | 0.00 | 0.00 | 64 | 1013.3 |
| 20260504182004 | 80 | 181 | 8.0 | 15.0 | 0.00 | 0.00 | 0.00 | 65 | 1013.2 |
| 20260504181525 | 80 | 175 | 9.0 | 15.0 | 0.00 | 0.00 | 0.00 | 65 | 1013.2 |
| 20260504181004 | 79 | 177 | 8.0 | 15.0 | 0.00 | 0.00 | 0.00 | 65 | 1013.4 |
| 20260504180505 | 79 | 177 | 7.0 | 17.0 | 0.00 | 0.00 | 0.00 | 66 | 1013.6 |
| 20260504180004 | 79 | 187 | 8.0 | 17.0 | 0.00 | 0.00 | 0.00 | 66 | 1013.6 |
| 20260504175504 | 78 | 195 | 8.0 | 15.0 | 0.00 | 0.00 | 0.00 | 66 | 1013.7 |
| 20260504175004 | 78 | 195 | 8.0 | 15.0 | 0.00 | 0.00 | 0.00 | 68 | 1013.9 |
| 20260504174525 | 78 | 197 | 9.0 | 15.0 | 0.00 | 0.00 | 0.00 | 68 | 1014.1 |
| 20260504174004 | 78 | 192 | 8.0 | 14.0 | 0.00 | 0.00 | 0.00 | 66 | 1014.1 |
| 20260504173504 | 78 | 182 | 8.0 | 19.0 | 0.00 | 0.00 | 0.00 | 66 | 1014.1 |
| 20260504173004 | 78 | 185 | 8.0 | 19.0 | 0.00 | 0.00 | 0.00 | 69 | 1014.2 |
| 20260504172505 | 77 | 198 | 7.0 | 13.0 | 0.00 | 0.00 | 0.00 | 70 | 1014.4 |
| 20260504172025 | 77 | 202 | 8.0 | 13.0 | 0.00 | 0.00 | 0.00 | 71 | 1014.3 |
| 20260504171504 | 76 | 192 | 8.0 | 14.0 | 0.00 | 0.00 | 0.00 | 70 | 1014.4 |
| 20260504171004 | 77 | 185 | 8.0 | 14.0 | 0.00 | 0.00 | 0.00 | 70 | 1014.6 |
| 20260504170504 | 77 | 188 | 7.0 | 13.0 | 0.00 | 0.00 | 0.00 | 70 | 1014.7 |
| 20260504151004 | 70 | 188 | 8.0 | 15.0 | 0.00 | 0.00 | 0.00 | 79 | 1015.5 |
| 20260504150504 | 70 | 189 | 8.0 | 15.0 | 0.00 | 0.00 | 0.00 | 80 | 1015.5 |
| 20260504141026 | 68 | 184 | 6.0 | 11.0 | 0.00 | 0.00 | 0.00 | 80 | 1015.5 |
| 20260504140504 | 68 | 181 | 5.0 | 11.0 | 0.00 | 0.00 | 0.00 | 80 | 1015.5 |
| 20260504130504 | 62 | 0 | 0.0 | 0.0 | 0.00 | 0.00 | 0.00 | 86 | 1015.7 |
| 20260504110504 | 61 | 0 | 0.0 | 0.0 | 0.00 | 0.00 | 0.00 | 85 | 1015.4 |
| 20260504100504 | 61 | 180 | 0.0 | 1.0 | 0.00 | 0.00 | 0.00 | 85 | 1015.2 |
| 20260504082004 | 63 | 180 | 1.0 | 3.0 | 0.00 | 0.00 | 0.00 | 80 | 1015.8 |
| 20260504081503 | 63 | 178 | 1.0 | 5.0 | 0.00 | 0.00 | 0.00 | 80 | 1016.0 |
| 20260504081004 | 63 | 168 | 2.0 | 5.0 | 0.00 | 0.00 | 0.00 | 79 | 1015.9 |
| 20260504080504 | 63 | 158 | 2.0 | 5.0 | 0.00 | 0.00 | 0.00 | 79 | 1015.9 |
| 20260504050503 | 67 | 160 | 5.0 | 11.0 | 0.00 | 0.00 | 0.00 | 71 | 1017.9 |
| 20260504050025 | 67 | 161 | 5.0 | 10.0 | 0.00 | 0.00 | 0.00 | 70 | 1017.9 |
| 20260504045503 | 67 | 159 | 5.0 | 10.0 | 0.00 | 0.00 | 0.00 | 70 | 1018.0 |
| 20260504045004 | 67 | 156 | 5.0 | 10.0 | 0.00 | 0.00 | 0.00 | 70 | 1018.0 |
| 20260504044504 | 67 | 158 | 5.0 | 14.0 | 0.00 | 0.00 | 0.00 | 69 | 1018.1 |
| 20260504044004 | 68 | 160 | 6.0 | 14.0 | 0.00 | 0.00 | 0.00 | 69 | 1018.0 |
| 20260504043504 | 67 | 154 | 6.0 | 10.0 | 0.00 | 0.00 | 0.00 | 69 | 1018.1 |